Regional Weather Roundup
Issued by NWS Kansas City/Pleasant Hill, MO

Home | Current Version | Previous Version | Text Only | Print | Product List | Glossary On
Versions: 1 2 3 4 5 6 7 8 9 10 11 12 13 14 15 16 17 18 19 20 21 22 23 24 25 26 27
000
ASUS43 KEAX 031210
RWREAX

WEATHER ROUNDUP FOR EASTERN KANSAS AND NORTHWEST MISSOURI
NATIONAL WEATHER SERVICE KANSAS CITY/PLEASANT HILL MO
700 AM CDT TUE MAY 03 2016

KSZ040-057-103>105-MOZ028-029-037-043-031300-
...KANSAS CITY METROPOLITAN AREA...

CITY           SKY/WX    TMP DP  RH WIND       PRES   REMARKS
K.C. INTL      PTCLDY    45  43  93 W3        30.06S
6HR MIN TEMP:  41; 6HR MAX TEMP:  49;

K.C. DOWNTOWN  CLEAR     43  42  97 SW3       30.07R
6HR MIN TEMP:  43; 6HR MAX TEMP:  48;

LEES SUMMIT      N/A     44  44 100 SW3       30.07R
6HR MIN TEMP:  43; 6HR MAX TEMP:  47;

OLATHE - IXD   CLEAR     43  43 100 CALM      30.08R
6HR MIN TEMP:  42; 6HR MAX TEMP:  48;

OLATHE - OJC     N/A     45  43  93 W3        30.07R
6HR MIN TEMP:  44; 6HR MAX TEMP:  47;

LAWRENCE       FOG       39  38  96 CALM      30.08S VSB 1/4

$$

MOZ001>008-011>017-020>025-030>033-038>040-044>046-053-054-031300-
...NORTHERN AND CENTRAL MISSOURI...

CITY           SKY/WX    TMP DP  RH WIND       PRES   REMARKS
ST. JOSEPH     FOG       42  41  96 CALM      30.07S VSB<1/4
6HR MIN TEMP:  40; 6HR MAX TEMP:  47;

WARRENSBURG      N/A     37  37 100 SE3       30.07S FOG
WHITEMAN AFB   PTCLDY    42  42 100 SW3       30.06S
6HR MIN TEMP:  41; 6HR MAX TEMP:  47;

CLINTON        FOG       39  39 100 CALM      30.08R VSB<1/4
SEDALIA        CLEAR     46  44  93 W6        30.07R FOG
6HR MIN TEMP:  45; 6HR MAX TEMP:  47;

WARSAW         NOT AVBL
CHILLICOTHE      N/A     40  40 100 CALM      30.08R
6HR MIN TEMP:  38; 6HR MAX TEMP:  43;

KIRKSVILLE     MOCLDY    43  42  97 NW5       30.06R
6HR MIN TEMP:  38; 6HR MAX TEMP:  43;


$$

MOZ041-047>049-056>058-063>065-088>090-097-031300-
...EASTERN AND SOUTHERN MISSOURI...

CITY           SKY/WX    TMP DP  RH WIND       PRES   REMARKS
ST. LOUIS INTL PTSUNNY   53  49  86 W6        30.03R
6HR MIN TEMP:  52; 6HR MAX TEMP:  54;

SPIRIT OF STL  CLOUDY    51  49  92 CALM      30.03R
COLUMBIA       FOG       43  43 100 NW3       30.05S VSB<1/4
JEFFERSON CITY FOG       45  45 100 W3        30.07R VSB<1/4
ROLLA          CLOUDY    47  46  97 NW6       30.04R FOG
OSAGE BEACH    CLOUDY    46  39  76 S3        30.07R VSB<1/4
SPRINGFIELD    FOG       42  41  96 CALM      30.07R VSB<1/4
BRANSON        MOCLDY    46  46 100 CALM      30.08R
JOPLIN         FOG       41  40  96 CALM      30.09R VSB<1/4
WEST PLAINS    CLOUDY    50  45  83 N5        30.05R

$$

IAZ060-094-KSZ022-034>040-054-083-096-NEZ052-066-093-031300-
...KANSAS...SOUTHEAST NEBRASKA AND IOWA...

CITY           SKY/WX    TMP DP  RH WIND       PRES   REMARKS
TOPEKA         MOCLDY    40  40 100 CALM      30.08S FOG
6HR MIN TEMP:  39; 6HR MAX TEMP:  45;

MANHATTAN      CLEAR     41  38  89 CALM      30.08R FOG
EMPORIA        CLEAR     41  40  96 S5        30.08R
CHANUTE        CLEAR     39  38  96 CALM      30.09S FOG
WICHITA        PTCLDY    43  39  86 SE5       30.07R
OMAHA          PTCLDY    43  41  93 SE5       30.05R
LINCOLN        CLEAR     41  39  93 N3        30.08R
FALLS CITY     CLEAR     42  41  96 CALM      30.06R
LAMONI         PTCLDY    44  41  89 W6        30.05R
DES MOINES     PTCLDY    45  41  86 CALM      30.04S

$$





USA.gov is the U.S. government's official web portal to all federal, state and local government web resources and services.